Terminal Aerodrome Forecast
Issued by NWS

Home | Current Version | Previous Version | Graphics & Text | Print | Product List | Glossary On
Versions: 1 2 3 4 5 6 7 8 9 10 11 12 13 14 15 16 17 18 19 20 21 22 23
000
FTUS42 KMHX 292300
TAFISO
TAF
KISO 292324Z 3000/3024 00000KT 3SM -RA BKN015
     FM300600 01003KT 1SM BR BKN003
     FM301400 01005KT P6SM SCT100
     FM301900 01005KT P6SM FEW040
      AMD LTD TO CLD VIS AND WIND=

USA.gov is the U.S. government's official web portal to all federal, state and local government web resources and services.